timestamp,wind_dir_avg,wind_spd_avg,wind_spd_max_dir,wind_spd_gust,battery_voltage,lat,long
2024-02-03 00:04:00+00:00,157.0,3.42,160.0,3.69,12.25,47.59359,-54.27349
2024-02-03 00:14:00+00:00,142.0,4.2,142.0,4.51,12.17,47.59359,-54.27349
2024-02-03 00:24:00+00:00,148.0,3.75,145.0,4.12,12.17,47.59359,-54.27349
2024-02-03 00:34:00+00:00,159.0,3.36,151.0,3.75,12.17,47.59359,-54.27349
2024-02-03 00:44:00+00:00,136.0,2.61,131.0,2.91,12.17,47.59359,-54.27349
2024-02-03 00:54:00+00:00,136.0,2.87,129.0,3.28,12.17,47.59359,-54.27349
2024-02-03 01:04:00+00:00,152.0,4.26,155.0,4.78,12.17,47.59359,-54.27349
2024-02-03 01:14:00+00:00,159.0,3.91,161.0,4.31,12.17,47.59359,-54.27349
2024-02-03 01:24:00+00:00,160.0,3.85,160.0,4.36,12.17,47.59359,-54.27349
2024-02-03 01:34:00+00:00,167.0,3.84,166.0,4.22,12.17,47.59359,-54.27349
2024-02-03 01:44:00+00:00,164.0,4.08,166.0,4.64,12.17,47.59359,-54.27349
2024-02-03 01:54:00+00:00,168.0,3.65,167.0,4.06,12.17,47.59359,-54.27349
2024-02-03 02:04:00+00:00,158.0,3.71,159.0,4.13,12.17,47.59359,-54.27349
2024-02-03 02:14:01+00:00,149.0,3.78,150.0,4.06,12.09,47.59359,-54.27349
2024-02-03 02:24:01+00:00,148.0,4.03,152.0,4.67,12.09,47.59359,-54.27349
2024-02-03 02:34:01+00:00,130.0,3.74,141.0,4.16,12.09,47.59359,-54.27349
2024-02-03 02:44:01+00:00,139.0,4.02,142.0,4.41,12.09,47.59359,-54.27349
2024-02-03 02:54:01+00:00,135.0,4.01,141.0,4.65,12.09,47.59359,-54.27349
2024-02-03 03:04:01+00:00,142.0,4.18,144.0,4.9,12.09,47.59359,-54.27349
2024-02-03 03:14:00+00:00,137.0,4.58,141.0,4.98,12.09,47.59359,-54.27349
2024-02-03 03:24:00+00:00,141.0,4.5,144.0,5.06,12.09,47.59359,-54.27349
2024-02-03 03:34:00+00:00,138.0,3.95,139.0,4.35,12.09,47.59359,-54.27349
2024-02-03 03:44:00+00:00,131.0,4.24,130.0,5.0,12.09,47.59359,-54.27349
2024-02-03 03:54:00+00:00,127.0,3.93,132.0,4.27,12.09,47.59359,-54.27349
2024-02-03 04:04:00+00:00,128.0,2.88,130.0,3.25,12.09,47.59359,-54.27349
2024-02-03 04:14:00+00:00,120.0,2.91,123.0,3.22,12.09,47.59359,-54.27349
2024-02-03 04:24:00+00:00,107.0,2.8,136.0,3.92,12.09,47.59359,-54.27349
2024-02-03 04:34:00+00:00,115.0,2.58,125.0,3.43,12.09,47.59359,-54.27349
2024-02-03 04:44:00+00:00,89.0,2.59,53.0,3.83,12.09,47.59359,-54.27349
2024-02-03 04:54:00+00:00,108.0,2.42,73.0,3.69,12.09,47.59359,-54.27349
2024-02-03 05:04:00+00:00,112.0,2.22,130.0,3.43,12.09,47.59359,-54.27349
2024-02-03 05:14:00+00:00,89.0,1.78,84.0,2.61,12.09,47.59359,-54.27349
2024-02-03 05:24:00+00:00,97.0,1.79,112.0,2.81,12.09,47.59359,-54.27349
2024-02-03 05:34:00+00:00,79.0,2.65,84.0,3.13,12.09,47.59359,-54.27349
2024-02-03 05:44:00+00:00,84.0,2.63,80.0,3.2,12.09,47.59359,-54.27349
2024-02-03 05:54:00+00:00,89.0,2.65,102.0,3.3,12.09,47.59359,-54.27349
2024-02-03 06:04:00+00:00,93.0,2.41,130.0,3.24,12.09,47.59359,-54.27349
2024-02-03 06:14:00+00:00,67.0,2.9,59.0,3.42,12.01,47.59359,-54.27349
2024-02-03 06:24:00+00:00,75.0,2.48,64.0,3.48,12.01,47.59359,-54.27349
2024-02-03 06:34:00+00:00,75.0,2.75,62.0,3.45,12.01,47.59359,-54.27349
2024-02-03 06:44:00+00:00,71.0,2.69,62.0,3.5,12.01,47.59359,-54.27349
2024-02-03 06:54:00+00:00,76.0,2.69,62.0,3.4,12.01,47.59359,-54.27349
2024-02-03 07:04:00+00:00,75.0,2.84,52.0,3.87,12.01,47.59359,-54.27349
2024-02-03 07:14:00+00:00,66.0,3.63,73.0,5.05,12.01,47.59359,-54.27349
2024-02-03 07:24:00+00:00,73.0,5.01,68.0,5.8,12.01,47.59359,-54.27349
2024-02-03 07:34:00+00:00,67.0,6.08,74.0,7.63,12.01,47.59359,-54.27349
2024-02-03 07:44:00+00:00,66.0,6.01,61.0,6.7,12.01,47.59359,-54.27349
2024-02-03 07:54:00+00:00,62.0,5.75,57.0,6.43,12.01,47.59359,-54.27349
2024-02-03 08:04:00+00:00,52.0,6.38,51.0,8.34,12.01,47.59359,-54.27349
2024-02-03 08:14:00+00:00,63.0,5.82,68.0,6.54,12.01,47.59359,-54.27349
2024-02-03 08:24:00+00:00,57.0,6.42,56.0,7.44,12.01,47.59359,-54.27349
2024-02-03 08:34:00+00:00,69.0,6.9,70.0,8.05,12.01,47.59359,-54.27349
2024-02-03 08:44:00+00:00,62.0,6.05,59.0,7.06,12.01,47.59359,-54.27349
2024-02-03 08:54:00+00:00,54.0,6.97,56.0,7.66,12.01,47.59359,-54.27349
2024-02-03 09:04:00+00:00,52.0,7.07,53.0,8.48,12.01,47.59359,-54.27349
2024-02-03 09:14:00+00:00,56.0,6.35,60.0,7.36,11.93,47.59359,-54.27349
2024-02-03 09:24:00+00:00,68.0,5.7,58.0,6.74,11.93,47.59359,-54.27349
2024-02-03 09:34:00+00:00,69.0,6.14,71.0,6.75,11.93,47.59359,-54.27349
2024-02-03 09:44:00+00:00,66.0,5.86,58.0,6.64,11.93,47.59359,-54.27349
2024-02-03 09:54:00+00:00,68.0,6.84,71.0,7.79,11.93,47.59359,-54.27349
2024-02-03 10:04:00+00:00,65.0,7.07,70.0,8.41,11.93,47.59359,-54.27349
2024-02-03 11:14:00+00:00,72.0,7.94,73.0,9.96,11.93,47.59359,-54.27349
2024-02-03 11:24:00+00:00,64.0,8.45,62.0,9.65,11.93,47.59359,-54.27349
2024-02-03 11:34:00+00:00,70.0,5.52,65.0,7.53,11.93,47.59359,-54.27349
2024-02-03 11:44:00+00:00,75.0,5.31,70.0,6.48,11.93,47.59359,-54.27349
2024-02-03 11:54:00+00:00,71.0,5.54,56.0,7.63,11.93,47.59359,-54.27349
2024-02-03 12:04:00+00:00,70.0,5.69,68.0,7.62,11.93,47.59359,-54.27349
2024-02-03 12:14:00+00:00,69.0,5.75,63.0,6.84,11.93,47.59359,-54.27349
2024-02-03 12:24:00+00:00,67.0,6.56,66.0,7.79,11.93,47.59359,-54.27349
2024-02-03 12:34:00+00:00,64.0,6.42,60.0,8.4,11.93,47.59359,-54.27349
2024-02-03 12:44:00+00:00,66.0,8.91,72.0,10.32,11.93,47.59359,-54.27349
2024-02-03 12:54:00+00:00,63.0,7.17,72.0,8.58,11.93,47.59359,-54.27349
2024-02-03 13:04:00+00:00,63.0,7.06,68.0,8.88,11.93,47.59359,-54.27349
2024-02-03 13:14:00+00:00,72.0,7.97,70.0,9.17,13.21,47.59359,-54.27349
2024-02-03 13:24:00+00:00,64.0,8.35,64.0,10.29,13.21,47.59359,-54.27349
2024-02-03 13:34:00+00:00,60.0,9.39,61.0,11.38,13.21,47.59359,-54.27349
2024-02-03 13:44:00+00:00,63.0,8.86,59.0,9.82,13.21,47.59359,-54.27349
2024-02-03 13:54:00+00:00,55.0,9.2,54.0,10.65,13.21,47.59359,-54.27349
2024-02-03 14:04:00+00:00,54.0,9.84,56.0,10.95,13.21,47.59359,-54.27349
2024-02-03 14:14:00+00:00,64.0,10.18,61.0,11.73,12.97,47.59359,-54.27349
2024-02-03 14:24:00+00:00,58.0,8.79,57.0,10.83,12.97,47.59359,-54.27349
2024-02-03 14:34:00+00:00,57.0,9.39,61.0,10.86,12.97,47.59359,-54.27349
2024-02-03 14:44:00+00:00,60.0,9.63,62.0,10.72,12.97,47.59359,-54.27349
2024-02-03 14:54:00+00:00,58.0,9.15,64.0,11.32,12.97,47.59359,-54.27349
2024-02-03 15:04:00+00:00,59.0,8.84,57.0,9.93,12.97,47.59359,-54.27349
2024-02-03 15:14:00+00:00,55.0,9.37,56.0,11.15,13.05,47.59359,-54.27349
2024-02-03 15:24:00+00:00,57.0,10.45,53.0,12.16,13.05,47.59359,-54.27349
2024-02-03 15:34:00+00:00,65.0,10.57,66.0,11.82,13.05,47.59359,-54.27349
2024-02-03 15:44:00+00:00,58.0,10.82,57.0,11.72,13.05,47.59359,-54.27349
2024-02-03 15:54:00+00:00,55.0,10.44,56.0,11.76,13.05,47.59359,-54.27349
2024-02-03 16:04:00+00:00,55.0,11.49,54.0,12.48,13.05,47.59359,-54.27349
2024-02-03 16:14:00+00:00,57.0,11.09,52.0,12.55,13.68,47.59359,-54.27349
2024-02-03 16:24:00+00:00,58.0,9.9,55.0,11.86,13.68,47.59359,-54.27349
2024-02-03 16:34:00+00:00,58.0,10.57,56.0,12.51,13.68,47.59359,-54.27349
2024-02-03 16:44:00+00:00,57.0,11.66,57.0,12.68,13.68,47.59359,-54.27349
2024-02-03 16:54:00+00:00,54.0,11.28,56.0,12.33,13.68,47.59359,-54.27349
2024-02-03 17:04:00+00:00,54.0,11.21,52.0,12.37,13.68,47.59359,-54.27349
2024-02-03 17:14:00+00:00,65.0,10.1,64.0,11.66,13.13,47.59359,-54.27349
2024-02-03 17:24:00+00:00,69.0,11.09,66.0,12.28,13.13,47.59359,-54.27349
2024-02-03 17:34:00+00:00,68.0,9.84,70.0,11.56,13.13,47.59359,-54.27349
2024-02-03 17:44:00+00:00,67.0,9.86,63.0,11.77,13.13,47.59359,-54.27349
2024-02-03 17:54:00+00:00,60.0,11.03,56.0,12.69,13.13,47.59359,-54.27349
2024-02-03 18:04:00+00:00,66.0,10.53,63.0,12.34,13.13,47.59359,-54.27349
2024-02-03 18:14:00+00:00,58.0,9.53,60.0,11.27,12.89,47.59359,-54.27349
2024-02-03 18:24:00+00:00,64.0,9.89,67.0,11.45,12.89,47.59359,-54.27349
2024-02-03 18:34:00+00:00,59.0,10.15,56.0,11.11,12.89,47.59359,-54.27349
2024-02-03 18:44:00+00:00,57.0,11.39,48.0,12.67,12.89,47.59359,-54.27349
2024-02-03 18:54:00+00:00,62.0,9.44,63.0,10.88,12.89,47.59359,-54.27349
2024-02-03 19:04:00+00:00,59.0,10.27,59.0,11.99,12.89,47.59359,-54.27349
2024-02-03 19:14:00+00:00,65.0,10.47,68.0,11.67,12.73,47.59359,-54.27349
2024-02-03 19:24:00+00:00,67.0,10.89,65.0,11.92,12.73,47.59359,-54.27349
2024-02-03 19:34:00+00:00,63.0,10.92,67.0,12.66,12.73,47.59359,-54.27349
2024-02-03 19:44:00+00:00,59.0,11.38,52.0,13.22,12.73,47.59359,-54.27349
2024-02-03 19:54:00+00:00,65.0,11.14,64.0,12.73,12.73,47.59359,-54.27349
2024-02-03 20:04:00+00:00,62.0,10.57,76.0,13.12,12.73,47.59359,-54.27349
2024-02-03 20:14:00+00:00,60.0,11.72,65.0,15.12,12.49,47.59359,-54.27349
2024-02-03 20:24:00+00:00,57.0,12.28,49.0,13.68,12.49,47.59359,-54.27349
2024-02-03 20:34:00+00:00,62.0,11.79,60.0,13.26,12.49,47.59359,-54.27349
2024-02-03 20:44:00+00:00,64.0,10.83,65.0,12.8,12.49,47.59359,-54.27349
2024-02-03 20:54:00+00:00,68.0,12.55,69.0,14.58,12.49,47.59359,-54.27349
2024-02-03 21:04:00+00:00,59.0,11.65,52.0,14.41,12.49,47.59359,-54.27349
2024-02-03 21:14:00+00:00,60.0,12.47,60.0,13.98,12.33,47.59359,-54.27349
2024-02-03 21:24:00+00:00,61.0,11.81,58.0,12.87,12.33,47.59359,-54.27349
2024-02-03 21:34:00+00:00,56.0,12.46,61.0,14.42,12.33,47.59359,-54.27349
2024-02-03 21:44:00+00:00,66.0,12.71,61.0,15.14,12.33,47.59359,-54.27349
2024-02-03 21:54:00+00:00,62.0,11.12,60.0,12.76,12.33,47.59359,-54.27349
2024-02-03 22:04:00+00:00,61.0,10.5,53.0,12.64,12.33,47.59359,-54.27349
2024-02-03 22:14:00+00:00,64.0,12.7,63.0,15.24,12.33,47.59359,-54.27349
2024-02-03 22:24:00+00:00,66.0,11.73,62.0,13.62,12.33,47.59359,-54.27349
2024-02-03 22:34:00+00:00,64.0,12.02,63.0,14.94,12.33,47.59359,-54.27349
2024-02-03 22:44:00+00:00,68.0,11.92,64.0,13.35,12.33,47.59359,-54.27349
2024-02-03 22:54:00+00:00,66.0,11.62,68.0,13.71,12.33,47.59359,-54.27349
2024-02-03 23:04:00+00:00,65.0,11.89,71.0,15.05,12.33,47.59359,-54.27349
2024-02-03 23:14:00+00:00,65.0,10.17,71.0,12.22,12.25,47.59359,-54.27349
2024-02-03 23:24:00+00:00,61.0,11.0,65.0,13.15,12.25,47.59359,-54.27349
2024-02-03 23:34:00+00:00,63.0,11.84,61.0,14.15,12.25,47.59359,-54.27349
2024-02-03 23:44:00+00:00,61.0,11.54,60.0,13.0,12.25,47.59359,-54.27349
2024-02-03 23:54:00+00:00,63.0,11.53,52.0,13.24,12.25,47.59359,-54.27349
